Wind_Speed
18 19 20 19 11 3 2 3 2 2 3 3 3 1 0 1 0 3 7 5 2 2 2 2 3 4 4 2 5 7 3 1 4 3 3 2 8 17 16 18 25 24 25 25 23 22 21 21 20 20 19 19 18 17 17 17 18 18 18 17 17 16 16 16 16 16 15 15 15 15 15 14 13 12 11 11 11 11 10 10 11 11 11 12 12 12 12 12 13 14 13 14 14 14 14 14 13
18 18 18 15 8 4 2 3 3 2 5 3 3 1 1 1 2 3 5 3 2 4 1 4 5 5 6 5 5 5 4 2 2 3 1 6 13 14 14 21 25 25 26 25 24 23 22 22 21 21 19 19 18 17 17 18 18 18 18 18 17 16 16 15 15 15 15 15 15 15 14 13 13 12 11 11 10 10 9 10 11 10 10 11 11 11 12 12 12 13 14 14 14 13 13 13 13
17 17 18 12 5 4 2 4 2 2 4 1 4 4 1 2 2 2 4 1 6 5 1 4 5 3 4 5 3 2 1 0 2 1 3 11 11 12 19 23 24 25 26 25 24 24 24 22 22 21 19 19 18 17 18 18 18 18 18 18 17 17 16 15 15 15 15 14 14 14 14 13 12 11 10 9 9 9 9 9 9 9 8 9 10 11 11 12 13 13 14 14 13 12 12 12 12
15 14 14 8 3 4 4 4 1 3 1 2 2 6 2 4 2 5 4 2 7 3 2 3 4 2 3 4 1 1 1 1 2 1 5 9 10 17 23 23 25 25 26 25 25 25 24 23 23 22 20 19 18 18 18 18 19 18 18 18 17 17 16 15 15 15 14 14 13 14 13 12 11 10 9 8 8 8 8 8 7 8 8 8 9 10 11 12 14 13 13 13 12 12 11 11 10
12 8 10 5 3 2 3 2 1 2 2 3 1 6 3 5 5 6 3 3 5 3 3 3 2 2 3 3 1 2 1 0 2 3 6 9 13 21 24 24 26 25 25 25 24 24 23 24 24 23 20 19 19 19 19 19 19 18 18 17 17 17 16 15 14 14 14 13 13 13 12 12 11 10 8 7 7 7 7 6 6 6 7 8 9 10 11 12 13 12 12 12 11 11 10 10 9
9 4 7 7 3 1 3 0 1 2 4 5 2 5 4 5 5 3 3 2 3 3 3 3 2 2 3 2 2 2 1 2 3 5 9 11 17 23 23 24 25 24 24 23 23 24 23 24 24 23 21 20 20 20 19 19 19 18 18 17 17 16 16 15 14 14 13 13 12 12 11 11 10 9 7 6 6 6 5 4 4 4 5 7 8 10 11 11 11 11 11 11 10 9 9 9 8
7 2 4 6 2 1 3 1 3 4 4 4 3 4 4 3 5 1 4 4 2 2 1 2 5 6 2 1 1 4 4 3 4 8 13 16 21 23 23 24 24 23 22 22 23 23 22 23 23 23 21 21 21 20 19 18 18 18 18 17 17 16 16 15 14 14 13 12 11 10 9 9 8 8 7 5 5 4 4 3 2 3 4 6 8 9 11 11 10 9 9 8 8 8 8 8 7
5 2 0 3 2 3 4 1 3 3 3 3 3 5 5 2 5 2 0 2 2 3 1 5 6 5 1 2 1 6 7 3 6 12 17 20 23 22 22 23 23 23 22 22 22 21 21 22 22 21 21 21 20 20 19 18 18 17 17 17 16 16 15 15 14 13 12 11 10 8 7 7 7 6 5 5 4 4 4 3 2 3 3 5 7 9 11 11 10 9 8 7 6 6 6 5 5
4 3 0 2 2 2 2 1 3 3 5 5 5 5 4 1 4 3 2 3 2 2 0 5 4 3 2 3 2 4 6 6 11 16 19 22 23 22 22 23 23 24 24 23 22 21 21 21 21 21 21 21 20 19 19 18 17 17 17 16 16 15 15 14 14 13 11 10 8 7 6 6 6 5 4 3 3 4 5 4 4 3 4 5 6 8 10 11 10 9 7 6 5 5 4 4 3
4 3 1 2 2 1 2 2 2 3 5 5 6 8 4 1 1 2 3 1 4 2 2 3 5 4 5 4 1 2 1 11 17 19 20 23 23 22 22 22 23 24 25 24 23 22 21 20 20 21 21 21 20 19 19 18 17 17 16 16 15 15 14 13 12 11 9 8 7 6 6 6 6 5 4 3 2 3 4 5 5 4 5 7 7 8 9 10 9 8 8 7 5 4 3 3 2
2 3 2 2 2 2 3 3 4 4 5 4 6 9 4 5 4 1 3 2 3 1 1 2 5 5 6 3 1 0 7 14 18 22 22 22 21 21 21 21 22 23 24 24 23 22 21 21 20 21 22 21 20 20 19 18 17 17 15 15 15 14 13 12 11 9 8 7 6 6 6 6 7 7 6 4 4 4 5 5 5 6 7 7 8 8 8 9 9 8 8 7 6 4 3 2 1
2 1 3 3 3 4 5 3 4 4 5 5 5 8 3 2 1 1 4 2 1 4 3 2 5 4 5 1 1 5 10 12 16 21 22 21 20 20 20 21 22 23 23 22 22 22 21 21 21 20 20 21 20 19 19 18 17 16 15 14 14 14 12 11 10 8 7 6 7 7 8 9 10 10 10 8 7 7 6 6 6 7 8 8 8 8 8 8 8 8 8 7 6 4 3 2 1
3 3 5 3 3 4 4 2 3 3 4 3 4 5 4 5 5 1 2 2 4 6 3 4 8 4 4 2 2 6 9 12 16 19 21 20 20 20 21 22 23 23 22 21 21 21 20 21 21 20 20 20 19 19 18 17 16 15 14 14 14 13 12 10 9 7 6 6 7 9 10 12 13 14 13 12 11 9 8 7 7 8 9 8 8 8 7 7 7 8 8 7 6 4 3 2 1
3 3 4 3 1 3 4 2 2 2 3 4 4 4 3 3 2 3 4 5 5 2 3 6 10 6 4 4 2 5 9 15 18 18 20 20 21 21 22 23 23 22 22 21 21 20 20 21 20 20 20 19 19 18 17 16 16 14 14 14 14 12 11 9 8 7 7 8 9 10 11 13 14 14 14 14 14 12 10 8 8 8 9 9 8 8 7 6 7 6 7 7 6 5 4 2 1
3 2 4 3 2 2 3 3 3 4 4 4 4 3 3 3 2 4 4 4 3 0 5 5 6 3 5 9 5 8 14 20 20 19 21 20 21 21 22 22 22 22 22 22 22 21 22 21 21 21 20 20 19 19 17 16 15 14 14 14 13 12 11 9 8 8 8 9 10 11 12 13 13 14 14 14 15 14 12 9 8 8 8 8 8 7 6 5 5 5 6 6 5 5 4 3 2
3 3 4 3 3 3 4 3 3 4 4 5 4 3 3 4 5 4 3 3 5 1 2 2 3 1 7 8 6 16 23 23 22 22 23 22 21 21 21 21 21 21 22 23 22 23 23 23 22 21 20 20 19 18 17 16 14 14 14 14 13 11 10 9 9 10 10 10 10 11 12 12 13 13 13 13 14 14 13 12 10 8 7 8 8 6 5 4 4 4 4 4 4 4 3 3 3
3 4 3 3 4 5 5 4 4 5 4 5 5 3 1 2 5 2 5 6 7 2 3 0 3 2 5 4 12 27 28 25 26 24 24 23 23 22 21 21 21 21 22 23 23 23 24 23 23 22 21 20 19 18 17 16 15 14 15 14 12 11 10 10 11 12 11 11 11 11 12 12 12 12 12 12 12 12 13 13 12 10 8 7 6 5 4 3 2 2 3 3 3 4 3 2 3
2 3 3 4 5 5 7 8 7 5 3 4 5 3 5 1 2 3 5 8 4 5 5 3 5 6 6 11 22 30 28 28 28 25 23 22 21 21 21 22 22 22 22 23 23 24 24 24 22 22 21 20 20 18 17 17 16 15 15 13 12 11 10 12 13 12 11 11 11 11 11 11 11 11 12 12 11 11 11 11 11 11 9 7 6 4 3 2 2 3 3 3 3 4 4 2 3
3 4 4 6 6 6 8 9 8 5 5 6 6 3 5 4 5 4 4 1 1 6 3 3 5 6 9 15 22 25 26 27 26 25 23 22 21 21 20 21 21 22 23 23 23 24 24 24 22 22 21 20 20 19 18 17 16 16 15 13 12 11 11 12 12 11 10 10 10 10 10 10 10 10 10 10 9 9 9 9 9 9 8 7 6 5 5 4 3 3 4 4 5 5 5 3 3
3 4 4 6 6 6 6 7 9 8 7 6 6 1 4 3 4 3 6 5 1 4 4 3 5 6 9 12 17 22 24 24 24 24 23 22 22 22 20 19 20 22 23 23 23 23 23 22 21 21 19 19 20 18 18 18 16 16 15 14 12 11 11 12 11 10 10 9 9 8 8 8 8 8 7 7 7 7 7 6 6 6 6 5 5 5 5 5 4 3 4 4 4 4 5 4 4
3 4 5 6 6 7 7 7 8 8 7 5 3 0 0 3 2 5 10 7 2 6 8 9 12 13 13 12 15 19 20 20 22 22 21 22 22 20 19 19 20 21 23 23 22 23 23 21 21 20 18 19 20 18 18 17 16 15 14 13 12 11 12 12 11 9 9 8 8 7 6 6 7 7 6 6 5 5 5 4 3 3 3 3 4 4 4 4 3 3 3 3 3 3 4 4 4
2 4 5 6 6 6 7 7 8 6 4 3 2 1 3 2 3 5 11 7 4 7 10 13 16 17 17 17 16 16 16 17 19 20 20 21 21 18 17 17 18 20 22 23 22 22 22 20 20 20 18 19 19 18 17 17 16 15 14 13 12 12 12 12 10 8 7 7 6 6 5 5 5 6 6 5 4 4 3 3 2 2 2 3 3 3 3 4 4 4 4 3 3 4 4 4 5
3 4 4 6 6 6 5 4 7 5 4 4 4 2 2 5 2 3 6 5 6 6 8 12 13 17 20 19 17 16 15 15 17 21 21 20 20 19 19 19 18 21 23 22 22 22 22 19 18 19 18 19 19 18 17 17 17 15 14 13 12 12 12 11 8 6 5 5 4 4 3 3 4 5 5 5 4 3 2 1 1 2 2 3 4 3 3 4 4 4 4 4 4 4 4 5 6
5 4 3 6 6 7 6 3 4 4 6 5 1 1 1 4 2 1 2 4 7 5 7 9 9 14 17 16 16 17 17 18 19 21 20 18 20 22 22 20 19 21 21 21 21 22 22 21 19 19 19 19 18 18 17 17 17 16 15 14 13 12 11 9 7 6 5 4 3 2 2 2 3 4 4 4 4 3 2 1 1 1 2 3 3 4 4 3 3 3 3 3 4 4 5 6 6
6 6 3 4 4 6 7 5 4 3 4 3 2 4 2 6 4 2 2 6 5 4 9 9 10 12 14 15 16 15 15 16 17 17 16 15 19 19 19 19 19 20 21 21 21 21 22 22 21 20 19 19 18 18 17 16 16 16 15 14 14 12 10 8 7 6 6 5 3 3 2 1 2 3 3 3 3 2 1 0 0 0 1 2 2 3 3 2 2 2 2 3 4 4 5 6 6
6 6 4 2 2 5 6 7 6 3 2 2 3 2 1 4 3 2 2 3 2 6 10 8 12 13 13 13 14 14 13 14 14 14 14 14 17 17 16 18 19 20 20 21 20 21 22 22 21 20 20 19 18 17 16 16 15 15 14 13 13 12 10 8 7 6 6 5 4 3 2 1 1 1 0 1 1 0 0 1 1 1 1 2 1 1 1 2 2 2 2 3 3 4 5 6 6
3 6 5 4 3 4 3 6 6 3 3 5 6 3 4 1 2 1 2 2 4 8 10 10 11 12 13 12 12 12 12 13 15 14 12 13 16 17 16 17 18 19 20 20 21 22 22 22 21 20 19 19 18 17 16 16 15 14 13 12 11 10 9 7 7 7 6 5 4 4 2 1 1 2 2 1 1 2 1 2 2 2 2 2 1 0 1 2 2 3 3 3 4 5 6 7 7
1 5 3 5 6 6 4 5 5 2 4 7 9 4 3 2 1 4 5 6 7 10 11 11 11 11 12 12 11 9 9 12 15 14 12 12 15 17 17 17 18 18 19 21 22 22 22 21 20 20 19 18 18 17 17 16 14 14 12 11 10 8 7 7 7 7 7 6 5 5 3 3 4 4 3 2 2 2 2 2 2 2 2 2 1 1 1 2 2 2 3 4 5 5 6 6 7
1 5 3 3 3 8 11 9 5 5 4 7 10 2 3 3 4 5 8 8 8 9 10 11 11 10 9 9 8 7 7 11 12 12 12 12 14 17 18 18 19 19 19 20 21 22 20 19 19 19 18 18 17 18 17 15 14 13 11 9 8 7 6 6 8 9 8 7 6 6 5 5 5 5 4 3 2 2 2 2 2 3 2 1 1 1 1 2 2 2 3 4 4 5 6 6 6
1 3 3 1 1 7 11 9 7 7 5 8 9 3 5 5 5 6 10 11 11 10 10 10 9 8 8 8 7 6 6 8 9 10 11 11 13 15 16 17 18 19 19 20 21 21 19 18 18 18 17 17 16 17 17 15 14 12 10 8 7 7 6 7 8 9 9 8 7 6 5 5 5 5 4 3 2 1 1 2 2 2 1 1 1 1 2 2 2 3 3 4 4 5 5 5 6
2 2 3 3 3 4 5 9 10 8 5 9 9 5 6 5 5 9 10 11 14 12 10 10 9 8 8 7 7 6 5 6 7 8 9 10 12 13 14 16 18 20 20 21 21 21 19 18 17 17 16 15 15 16 16 15 13 11 9 7 7 7 7 8 9 9 8 7 7 6 6 5 5 5 5 3 2 1 1 3 2 1 0 1 2 2 3 3 3 3 3 3 3 4 4 5 6
2 4 3 5 7 2 1 6 12 12 4 8 10 5 4 4 6 9 9 11 13 11 10 11 10 9 9 7 7 7 5 5 6 7 8 10 11 12 14 16 19 20 20 21 20 19 19 18 17 16 15 14 14 15 16 14 12 9 8 8 9 9 9 9 8 7 6 6 5 6 6 5 4 5 4 3 3 2 2 3 2 1 1 2 2 2 2 3 3 3 4 4 4 5 5 6 7
1 5 6 7 9 3 2 4 9 12 4 5 10 4 1 3 7 8 8 12 12 10 11 12 11 10 9 8 7 7 5 5 6 6 8 11 11 11 14 17 19 19 18 19 19 18 18 18 17 16 14 14 14 15 15 13 11 10 9 10 10 10 9 8 6 5 4 4 4 5 6 5 4 4 4 4 4 4 3 3 2 1 1 2 3 3 3 3 3 4 4 5 6 7 7 8 8
4 6 7 7 9 7 5 3 3 9 7 6 7 5 3 4 9 9 8 12 12 11 12 13 12 10 9 8 7 7 7 7 6 7 10 11 11 11 14 17 18 17 17 17 18 18 19 18 17 15 14 14 14 15 15 13 12 11 11 10 10 9 8 6 5 4 3 3 4 5 6 6 5 5 5 5 4 4 3 2 2 1 2 3 4 5 5 4 4 4 5 6 7 8 8 9 10
10 9 7 5 6 8 8 4 3 9 9 7 6 5 6 4 9 10 8 10 12 11 10 9 9 9 8 7 7 8 7 7 5 8 11 12 12 13 15 16 17 17 16 17 17 18 18 17 16 15 15 15 16 16 15 14 13 12 11 10 9 8 7 6 5 5 4 5 5 6 7 7 6 6 5 5 4 3 3 2 1 1 3 5 7 7 6 4 4 5 5 6 7 8 9 9 10
11 7 4 4 4 5 6 5 4 9 9 8 9 8 6 7 10 11 8 9 10 9 7 6 7 7 7 6 6 7 8 6 6 10 11 12 13 14 15 16 16 17 17 18 17 17 18 17 16 16 16 17 18 18 17 16 15 13 12 11 10 9 8 8 7 7 7 8 8 9 9 9 8 7 6 5 4 3 2 0 1 3 5 7 7 6 5 4 5 6 6 6 6 6 7 9 10
7 6 4 5 5 3 4 5 5 7 7 6 8 8 8 9 11 12 10 9 9 9 9 9 8 7 8 8 7 8 7 4 8 11 12 13 14 15 16 16 17 17 17 18 18 18 18 19 19 19 19 19 20 20 19 18 17 15 14 13 12 11 9 10 10 10 10 11 11 11 11 10 9 8 7 5 4 2 1 1 2 3 4 5 5 5 5 5 6 6 5 4 5 6 9 12 10
6 7 6 5 5 4 5 6 4 6 6 4 4 8 9 9 11 12 10 11 12 12 12 12 11 9 7 8 9 8 5 5 8 10 12 15 14 15 17 17 18 19 19 20 20 20 21 21 21 22 21 21 21 20 20 19 18 17 16 15 14 13 11 12 14 14 13 13 13 12 11 10 9 7 6 4 2 1 1 1 2 3 3 4 4 4 4 4 5 4 3 3 6 10 13 15 12
5 3 7 5 5 3 4 4 1 3 4 3 4 7 6 5 8 9 9 10 10 10 10 9 10 9 7 8 9 7 6 6 8 8 12 17 16 15 17 18 19 19 20 20 21 22 22 22 23 22 22 21 20 20 19 19 18 17 15 16 16 15 14 15 15 15 15 13 12 11 9 8 6 5 4 3 2 2 2 2 2 3 3 3 3 3 3 4 4 4 4 5 8 12 16 18 17
2 2 5 4 4 4 4 3 2 3 2 4 5 4 2 3 4 4 5 6 4 4 6 5 6 8 7 7 6 7 7 7 8 7 9 15 18 16 16 17 18 19 20 19 19 20 21 21 23 22 22 21 20 19 19 18 18 16 15 16 17 16 17 17 16 15 14 12 11 10 8 7 5 4 4 4 4 3 3 3 2 2 2 2 3 3 3 4 5 6 6 7 8 12 18 21 20
3 3 4 3 4 4 3 3 3 5 4 5 8 4 1 4 6 5 4 4 3 4 6 5 6 6 5 5 6 7 8 7 8 7 7 11 15 16 16 18 18 19 20 20 20 20 20 21 22 22 21 21 20 20 19 18 17 16 17 19 18 18 18 17 16 14 12 12 10 9 8 7 6 5 5 5 5 5 4 3 2 2 2 3 3 4 6 7 8 8 9 9 10 13 18 22 23
4 3 6 6 5 3 3 5 5 5 2 2 5 3 3 4 8 8 5 6 8 6 7 9 8 6 6 6 7 7 7 8 7 7 8 9 13 15 15 17 18 18 20 20 21 21 21 22 22 21 21 21 21 20 20 19 18 19 21 23 22 21 20 16 15 14 12 12 11 9 9 7 6 6 6 7 7 6 4 3 3 2 3 5 6 8 10 12 12 12 11 11 13 13 16 21 23
4 5 8 8 5 2 4 5 4 3 4 3 4 4 3 3 7 10 7 8 10 8 8 10 8 7 8 8 7 8 8 8 7 7 8 10 13 14 15 17 18 19 20 20 21 21 21 22 21 21 21 21 21 20 20 19 19 22 23 23 23 23 20 17 15 14 12 12 11 9 8 7 7 6 7 7 7 5 4 3 4 5 6 9 10 11 13 14 15 14 13 14 15 13 14 20 21
4 5 9 8 6 2 3 5 3 3 4 1 1 3 2 3 6 10 10 9 11 10 9 9 9 10 11 10 9 9 9 9 8 9 9 11 14 14 16 18 18 19 19 20 20 21 21 21 21 21 21 21 21 21 21 20 21 23 23 22 21 21 19 18 16 14 13 11 10 9 8 7 6 6 6 7 6 3 3 4 6 7 9 11 12 13 15 15 15 16 16 16 18 17 17 21 21
4 7 9 8 7 5 4 5 3 2 4 1 4 2 4 4 4 7 10 11 13 12 12 13 13 13 12 12 11 11 11 10 9 9 10 12 15 17 18 19 18 19 19 20 21 21 21 21 21 22 21 22 21 21 22 21 23 24 23 22 21 19 18 19 17 15 14 12 10 9 7 6 5 4 4 5 3 2 5 7 8 9 10 12 13 15 15 15 16 17 18 19 20 21 21 21 22
4 8 7 3 4 5 4 4 4 3 3 5 9 7 5 5 3 6 9 11 13 13 14 15 15 14 13 12 12 11 10 10 9 9 9 13 17 18 19 19 19 19 20 21 21 21 21 20 21 22 22 22 22 22 23 23 25 25 23 22 22 20 19 19 18 16 14 12 10 9 7 5 3 2 1 1 2 6 7 8 9 10 12 13 14 15 15 16 18 19 20 20 20 22 21 21 22
5 7 6 5 2 3 4 3 4 4 3 7 11 11 6 4 4 6 9 10 14 14 12 14 13 14 15 13 12 12 11 10 9 9 10 14 17 18 19 19 19 20 21 21 21 21 21 21 22 23 23 22 22 23 25 25 25 25 23 23 22 22 21 20 18 17 15 12 10 9 6 4 3 1 2 4 6 8 8 9 9 11 13 14 14 15 15 17 18 19 20 21 21 22 21 21 23
7 6 6 5 2 3 4 4 2 3 5 6 7 8 4 5 5 7 10 11 15 16 13 15 17 17 16 14 12 12 11 10 10 9 9 12 14 16 20 20 19 21 22 22 23 21 21 22 23 23 23 23 24 25 26 26 25 24 23 23 22 22 21 19 18 17 15 12 10 8 6 5 4 4 5 7 8 9 9 10 11 12 13 14 14 15 15 16 18 19 20 21 22 22 21 22 24
5 4 6 6 2 1 1 1 1 4 5 5 5 9 3 5 6 8 12 13 14 16 16 17 18 18 16 14 13 11 10 11 10 9 10 10 11 14 20 20 19 22 24 24 24 22 21 23 24 24 24 25 26 26 25 25 25 24 23 22 22 22 20 19 18 17 15 12 10 8 7 6 6 7 8 9 11 11 11 11 12 13 13 14 14 14 15 16 17 19 21 22 22 22 22 24 26
8 5 7 7 5 4 6 5 2 3 4 4 2 8 3 5 4 8 14 17 18 17 15 12 12 13 13 12 12 11 10 11 10 10 11 10 11 15 20 21 19 20 24 25 25 24 23 24 25 25 24 25 26 26 25 25 24 23 22 22 22 22 20 19 18 16 14 11 10 9 8 7 7 9 10 12 12 12 11 12 12 14 14 14 14 14 15 16 17 20 21 22 23 23 23 24 26
8 4 5 5 5 6 6 5 2 3 2 2 1 4 4 3 4 7 12 12 11 10 7 6 7 8 9 9 11 11 11 11 10 10 11 10 14 19 20 21 20 20 23 25 24 24 25 25 25 25 25 25 26 26 25 24 23 23 22 22 22 22 21 20 17 15 13 12 11 10 10 9 9 11 12 13 13 12 12 12 13 14 14 14 14 14 15 17 18 20 22 23 23 22 23 25 25
5 3 4 4 5 5 3 2 3 4 3 1 1 4 4 4 5 5 4 3 4 9 7 7 8 9 10 10 11 12 12 11 11 11 11 11 15 21 21 21 21 20 23 24 24 24 25 26 25 25 25 25 25 26 25 25 24 23 22 22 22 22 20 18 17 15 14 13 13 12 12 11 11 13 14 14 13 12 12 13 14 15 15 14 14 14 16 17 18 20 22 23 23 22 22 24 24
3 4 6 5 4 6 4 1 0 4 4 1 2 3 4 2 5 5 1 2 5 9 10 10 10 12 13 12 12 12 12 12 12 11 11 11 14 19 22 22 22 22 23 24 24 25 27 27 26 25 25 25 25 25 25 25 24 23 23 23 22 21 19 18 17 16 16 15 14 13 12 12 12 14 15 14 14 13 13 14 15 16 15 14 15 15 16 17 18 19 20 21 22 21 21 22 23
6 7 7 3 4 3 3 2 2 4 3 3 1 4 3 1 3 4 3 4 6 8 9 10 10 13 14 13 13 13 13 12 12 12 12 12 14 18 22 23 23 25 26 25 25 25 27 28 28 26 25 25 24 24 24 23 23 23 23 22 21 20 19 17 17 17 17 17 16 15 13 12 14 15 15 15 14 14 14 15 15 16 16 15 15 15 16 16 18 19 20 20 20 19 21 22 22
6 7 6 5 4 4 1 3 2 3 3 3 3 4 4 4 4 3 2 7 9 8 8 9 11 13 13 13 13 14 13 12 11 12 12 13 15 18 21 23 23 25 28 28 26 25 26 28 28 27 26 25 24 23 23 22 23 23 23 22 21 20 19 18 18 18 18 18 17 16 13 14 16 16 15 15 15 15 15 15 16 17 16 15 15 15 16 16 17 19 19 19 18 17 20 22 21
1 5 6 4 5 5 3 3 3 3 3 2 2 3 4 5 5 6 9 12 12 11 10 12 15 16 14 12 13 14 14 13 12 11 11 14 17 20 22 24 24 25 28 29 28 27 27 28 28 28 26 25 24 24 24 23 23 22 22 21 20 20 19 19 20 20 19 18 17 16 14 15 17 16 15 15 15 15 15 16 16 16 15 15 15 16 16 16 17 18 18 18 17 17 20 21 20
4 6 7 5 3 2 3 3 2 3 4 3 2 2 5 6 5 9 12 11 12 14 14 14 15 15 13 12 13 14 13 13 12 11 10 12 17 22 24 25 24 24 26 28 28 28 28 28 28 28 27 26 26 25 24 23 22 21 21 21 21 20 21 21 21 21 20 19 18 15 15 17 17 16 15 14 14 15 15 16 16 16 15 15 15 16 16 16 17 18 17 17 17 18 19 19 19
6 6 5 6 5 4 4 5 1 2 3 3 4 2 7 7 4 8 12 10 12 15 17 15 14 14 13 12 13 14 13 14 13 12 11 11 15 21 24 25 26 24 25 27 28 28 28 29 29 29 28 27 26 25 24 23 22 21 21 22 22 22 22 23 23 21 20 20 18 17 17 18 17 16 15 14 14 15 15 15 16 16 16 15 15 16 15 15 16 17 17 17 18 18 18 17 17
Wind_Direction
340 339 339 337 336 5 77 68 37 347 65 55 331 337 66 297 173 28 359 347 322 331 14 34 79 109 109 119 155 138 87 134 171 152 207 255 134 152 164 163 159 154 152 148 149 153 154 157 158 156 153 151 148 148 147 138 130 128 126 125 124 121 120 117 117 115 114 114 114 116 117 119 119 120 120 116 111 105 102 98 89 80 71 72 77 76 78 87 98 104 107 113 115 114 112 111 112
341 338 339 335 340 13 329 70 71 352 52 59 298 255 152 346 23 30 352 350 225 272 313 92 92 88 87 96 115 108 58 47 172 183 157 130 137 155 169 165 162 156 150 149 152 153 155 159 159 156 153 149 147 145 140 134 130 129 128 127 125 122 120 118 117 117 117 117 117 118 120 121 121 122 122 118 113 107 102 93 85 79 74 71 76 78 82 94 103 105 110 115 118 118 117 116 115
340 337 341 340 354 36 29 39 56 59 62 109 265 272 182 67 44 324 324 274 216 228 164 73 74 60 47 55 52 63 42 60 137 139 118 140 147 160 168 167 163 154 149 151 154 155 156 160 160 155 150 147 144 140 136 133 132 130 130 128 126 124 122 122 121 123 123 121 120 119 120 120 121 120 120 116 110 104 96 88 84 83 78 75 80 82 86 101 110 108 111 116 118 119 119 119 118
339 334 340 351 19 30 55 35 83 110 37 211 242 272 246 107 167 269 317 203 203 187 87 47 48 360 41 58 352 103 91 325 141 153 136 162 172 162 165 165 159 153 152 155 156 157 158 161 160 153 149 147 142 138 137 136 135 133 133 130 129 127 125 126 124 124 122 121 119 119 119 119 118 116 116 115 110 105 98 94 91 87 81 76 79 86 93 108 116 112 115 120 121 122 123 123 122
333 332 345 25 76 24 83 58 94 96 256 199 186 266 225 133 190 246 306 189 183 81 60 78 57 336 61 76 274 125 92 81 171 193 144 169 178 163 163 161 157 154 156 157 157 159 159 163 159 151 149 147 142 139 140 140 138 137 135 133 131 128 125 124 122 122 121 120 118 119 120 120 120 119 120 117 117 111 108 108 95 83 83 81 74 79 91 110 121 119 122 127 128 130 131 131 130
328 339 13 49 97 117 115 53 288 282 247 180 180 257 220 149 179 222 319 273 162 112 90 82 105 95 64 28 69 81 290 193 163 182 159 164 171 163 160 159 157 156 158 158 159 159 161 165 157 150 150 146 142 143 145 143 141 139 138 136 131 127 124 122 121 122 122 121 120 121 122 123 124 124 124 121 125 119 116 118 102 89 88 85 77 78 87 101 117 124 129 132 136 140 140 138 136
336 351 20 53 69 33 100 170 234 263 253 184 186 256 269 130 143 114 337 343 22 195 159 124 137 109 80 305 88 12 350 195 164 165 169 162 162 160 158 159 157 157 160 159 158 160 163 164 156 152 151 145 144 147 147 144 142 141 139 135 131 129 127 126 126 125 123 120 120 120 121 122 122 124 128 128 129 127 128 129 130 121 101 90 84 81 87 98 110 121 130 134 140 143 143 140 133
351 23 338 82 52 21 89 178 239 238 260 244 226 250 287 67 131 145 266 1 347 233 181 164 148 104 321 353 91 344 12 158 168 160 165 157 157 158 159 161 159 159 160 158 157 160 164 162 156 155 149 143 146 149 147 145 145 143 139 136 134 133 131 131 130 126 122 119 116 115 115 113 111 115 126 131 132 143 145 130 132 151 117 101 95 85 90 104 114 119 127 134 141 142 140 136 124
19 36 199 86 103 46 63 272 269 250 270 284 283 264 285 80 157 150 117 352 295 246 39 168 149 129 174 46 89 325 15 130 148 151 157 155 157 159 162 165 162 161 159 158 159 162 167 164 158 153 146 144 148 149 148 148 147 144 141 140 138 135 134 132 127 122 120 119 115 111 109 104 104 104 113 129 140 156 160 138 126 139 127 119 109 92 93 105 117 119 122 131 138 141 138 133 122
30 21 140 69 118 103 348 271 257 261 265 279 293 274 264 165 178 70 92 305 261 279 350 109 82 119 134 84 105 311 101 140 140 144 152 156 159 161 164 166 164 162 159 159 163 165 166 165 159 151 145 147 152 152 151 151 148 146 145 143 139 135 133 128 122 120 119 117 112 106 103 101 103 103 104 107 117 145 160 150 133 127 132 134 117 97 93 99 110 116 118 126 131 140 140 136 123
42 2 109 96 110 169 220 237 252 256 268 301 303 276 257 153 145 97 144 211 261 173 224 82 82 116 104 76 288 182 153 146 143 146 153 157 159 162 162 164 165 162 161 162 165 165 163 164 159 150 148 152 156 156 153 151 149 148 148 144 138 134 130 124 121 119 119 115 109 103 100 97 98 100 98 93 96 113 130 137 132 134 141 140 122 103 96 95 101 107 112 121 128 138 142 145 127
118 347 76 124 164 191 201 211 247 258 292 324 295 279 330 104 140 139 163 174 119 142 208 183 145 145 92 88 212 151 157 156 153 150 154 157 157 161 162 163 164 163 164 165 165 163 163 163 156 152 154 157 159 157 154 152 152 152 149 144 136 131 127 124 123 121 121 114 110 106 101 96 93 94 91 86 89 98 109 118 126 138 147 143 128 112 102 98 98 99 104 112 120 132 137 145 138
145 151 102 161 192 175 175 183 250 288 305 289 254 273 3 354 328 18 138 57 89 139 201 156 149 135 100 143 171 166 176 171 160 153 154 154 156 161 163 164 164 165 165 166 165 162 162 159 155 158 161 160 160 159 157 156 156 154 151 144 135 130 128 128 127 124 121 115 114 110 103 97 92 88 83 79 82 90 100 112 125 138 148 146 135 123 111 104 100 96 97 102 108 115 116 118 92
152 152 132 177 187 146 161 171 249 247 261 261 252 279 355 350 318 78 71 36 28 128 147 129 137 113 112 156 177 192 184 169 159 153 152 152 157 162 164 164 164 165 165 165 164 162 160 157 159 163 164 163 162 160 160 159 158 156 152 143 135 132 132 131 128 122 118 118 117 110 103 96 89 84 80 75 75 80 91 107 124 138 148 147 139 130 119 110 103 97 93 94 97 100 99 93 72
159 137 104 132 134 158 193 197 197 199 236 256 244 287 1 1 33 63 66 86 31 117 123 126 150 118 168 178 196 194 172 163 156 151 150 150 157 160 163 163 163 164 164 165 162 163 162 161 165 167 168 166 164 164 163 160 159 158 151 142 137 136 136 132 125 119 118 118 115 109 103 96 90 84 80 75 71 71 79 94 109 128 143 145 142 135 124 115 103 94 87 86 85 86 85 77 65
137 101 80 130 179 193 209 195 168 194 234 237 245 327 17 2 35 50 341 129 129 101 85 155 233 221 181 190 180 165 161 157 152 149 147 148 154 156 159 159 160 164 165 166 165 165 164 165 169 172 172 170 169 167 165 162 160 159 150 143 141 141 137 129 123 119 117 114 109 106 101 95 90 85 80 75 71 70 73 81 89 104 127 137 141 138 128 115 98 82 72 69 66 64 66 71 70
86 93 115 171 192 195 189 185 179 192 229 244 267 294 204 10 40 74 21 64 119 97 18 305 313 2 171 170 143 149 152 151 148 147 145 149 153 152 156 159 162 166 168 169 167 166 167 170 173 175 176 174 172 168 168 165 160 158 151 147 146 143 136 129 123 118 116 111 106 103 99 95 90 86 81 76 73 70 70 74 79 87 102 120 130 134 130 111 78 49 36 36 39 42 54 73 65
112 126 176 194 185 191 179 187 192 179 195 226 247 208 174 126 111 153 56 42 74 72 20 358 17 36 94 117 133 142 146 148 149 148 150 155 156 155 162 168 169 170 170 171 170 171 173 175 177 178 178 177 173 169 169 166 163 159 153 151 149 145 138 134 128 120 117 112 108 104 100 97 92 89 83 77 72 67 67 71 76 81 89 99 110 118 114 89 55 36 29 32 41 44 52 62 35
162 137 189 208 185 193 189 187 186 183 188 204 246 180 136 167 166 153 103 66 88 87 35 12 58 69 97 119 132 139 145 150 155 157 160 164 165 167 171 173 173 173 173 174 175 178 179 179 180 180 180 178 175 171 171 170 165 159 157 155 152 149 143 141 137 126 120 114 110 105 102 101 97 94 86 80 73 68 66 66 72 76 82 88 96 103 98 88 69 55 50 53 57 52 49 47 30
181 147 196 221 196 209 214 194 194 207 200 198 244 212 101 187 176 120 121 140 178 142 154 130 135 148 136 138 140 144 151 156 164 168 169 171 173 176 174 173 174 176 178 177 177 180 184 182 183 183 182 180 177 173 174 173 166 162 161 157 157 154 146 146 144 134 126 119 113 106 103 101 97 92 85 84 79 73 67 63 67 71 77 85 95 102 100 97 82 64 56 58 59 55 50 46 37
178 177 194 212 189 208 226 208 211 217 201 192 214 60 17 212 133 120 131 124 257 222 202 178 170 169 156 156 155 154 159 165 173 178 177 176 179 180 176 175 175 179 180 178 179 183 186 185 185 185 183 183 179 176 176 173 166 165 164 160 161 156 148 149 146 140 132 124 117 109 103 95 88 80 75 77 73 70 67 65 67 72 83 94 106 108 103 102 90 75 69 71 66 60 56 44 31
174 211 180 188 174 200 235 213 221 221 179 185 171 214 234 164 79 142 151 150 218 222 214 195 175 170 165 162 161 163 169 174 180 184 185 182 180 177 174 173 176 181 181 179 180 184 187 186 188 187 184 185 182 179 178 172 168 168 166 163 160 154 152 152 148 146 136 128 122 112 106 92 78 67 60 56 51 51 60 63 68 79 98 109 118 115 104 101 90 80 74 72 67 60 51 35 20
198 240 181 198 180 189 242 208 220 216 173 200 187 203 110 100 73 187 181 196 240 239 202 193 180 169 164 160 162 169 177 183 186 189 189 184 178 176 175 177 181 182 181 181 181 184 187 186 188 188 187 187 184 183 179 172 171 170 167 162 157 152 153 156 156 157 150 145 136 119 108 89 67 51 40 32 27 20 35 49 51 82 106 110 120 123 115 104 88 73 59 53 49 44 30 18 9
209 241 217 215 189 195 233 219 227 207 200 226 175 359 58 143 166 162 237 270 274 245 168 172 171 160 157 161 172 177 182 187 189 189 189 186 183 181 180 180 183 182 180 180 182 185 189 187 187 187 188 189 188 187 181 175 173 171 170 164 158 155 156 162 168 178 183 173 155 136 119 89 55 36 20 11 7 359 355 13 23 83 116 109 117 124 121 107 85 57 38 27 22 17 8 3 358
219 220 218 212 193 210 234 244 250 216 222 244 35 343 262 188 169 114 291 312 308 166 144 153 155 156 164 173 183 183 186 188 185 184 186 189 187 185 181 180 181 182 181 179 182 186 189 190 190 191 191 191 191 190 185 179 175 175 175 169 165 164 163 170 178 188 188 177 170 157 141 95 39 29 8 349 351 345 343 117 51 128 126 121 129 130 126 108 83 44 12 3 5 2 356 355 351
220 201 208 210 203 224 233 246 242 209 219 149 85 1 190 165 114 87 297 331 356 124 132 152 157 166 175 181 189 188 190 187 179 178 180 183 185 185 181 180 181 183 183 182 184 186 188 190 192 195 195 196 194 192 189 183 179 180 178 172 171 170 169 175 183 184 180 179 184 178 175 181 37 41 293 316 319 285 153 196 225 221 155 152 171 158 113 91 73 39 9 358 359 353 349 349 348
200 178 208 214 233 255 218 238 241 189 193 162 130 152 191 191 75 196 239 133 126 128 138 160 167 177 180 186 195 192 192 185 177 172 168 172 181 185 181 180 182 184 184 184 187 187 189 190 192 196 198 200 197 193 191 187 184 183 180 176 176 177 174 179 188 187 183 190 198 196 201 212 211 210 215 214 168 159 167 208 232 220 198 190 237 323 63 62 52 26 5 354 349 348 348 347 347
143 154 195 232 239 266 241 240 246 171 216 185 145 150 219 297 283 202 179 150 149 143 153 169 176 186 186 191 196 194 195 184 177 173 171 172 180 184 182 181 182 183 185 186 189 189 189 192 195 199 201 202 200 196 194 191 189 185 181 179 181 188 191 197 205 202 198 202 209 208 212 219 215 213 212 197 162 149 159 191 217 217 224 225 264 321 28 42 39 16 358 350 344 344 346 346 348
207 139 145 252 233 249 241 239 224 172 217 178 137 119 250 219 233 193 155 148 149 149 162 177 183 189 191 197 199 197 192 183 179 182 183 178 182 186 184 185 184 182 183 186 188 188 188 193 198 203 204 205 203 200 198 196 193 187 184 185 192 205 210 217 214 209 208 211 218 220 225 224 215 213 209 195 172 151 150 178 206 214 230 240 261 310 2 26 23 3 351 344 341 342 345 350 353
202 131 144 215 234 246 233 223 214 193 194 156 144 224 241 225 232 173 150 151 149 158 175 182 189 192 195 201 203 202 192 190 189 185 185 179 185 189 186 187 186 182 181 183 188 186 186 193 200 204 205 206 203 202 202 201 198 193 194 200 211 220 220 218 210 208 211 214 223 230 239 234 219 211 202 197 192 181 166 180 195 203 202 248 273 324 341 350 354 352 350 343 343 349 354 1 2
150 155 162 176 209 248 216 199 198 203 200 153 159 241 247 240 219 166 157 161 158 168 181 183 191 192 198 204 202 206 199 202 199 184 184 184 187 192 189 189 188 185 181 183 186 184 184 191 198 202 205 204 200 201 203 203 202 203 209 216 219 217 212 206 202 205 210 217 228 239 247 238 221 207 197 198 201 200 190 179 180 176 120 319 312 342 344 346 351 351 359 354 352 360 5 7 7
112 179 204 197 215 242 217 202 187 194 210 157 169 228 248 226 202 172 162 169 167 173 180 184 193 194 198 204 203 208 200 195 195 185 185 187 190 194 194 191 189 188 185 184 185 182 183 189 195 199 201 199 197 197 199 201 205 206 209 208 205 201 197 195 197 203 212 222 231 239 237 221 209 203 191 186 185 179 173 166 149 111 11 322 326 350 354 358 1 356 360 355 352 353 352 353 359
283 205 208 204 209 201 247 254 196 184 155 175 191 184 193 205 190 180 169 174 175 175 180 187 193 196 200 203 204 206 199 193 190 179 176 182 188 191 192 191 190 190 188 185 183 183 183 186 192 195 197 196 194 194 195 197 197 194 192 189 190 188 187 190 194 203 212 216 219 221 212 197 187 180 168 160 160 158 150 140 117 86 357 339 350 1 4 8 2 353 356 354 350 348 342 343 350
240 213 215 214 200 183 197 257 205 171 152 192 197 160 200 209 179 180 181 179 180 183 186 190 193 197 202 203 203 206 205 203 189 165 165 171 177 180 184 186 187 188 187 184 183 184 184 184 188 191 195 197 196 193 191 189 186 183 181 180 181 179 179 181 183 192 193 187 191 190 184 176 163 151 142 139 142 145 135 119 103 66 359 347 343 342 343 344 341 341 351 353 347 345 345 346 350
203 199 209 213 190 187 192 200 178 168 173 187 167 175 217 196 172 182 187 180 186 194 185 185 193 196 201 201 205 207 208 209 177 153 160 165 167 168 173 176 179 182 181 181 181 182 182 182 185 189 193 195 194 192 187 183 179 175 172 169 170 169 166 163 162 165 157 157 161 157 153 148 144 140 137 139 140 141 130 110 86 337 325 323 322 319 319 321 334 345 350 352 349 351 354 353 353
195 185 174 150 161 202 195 199 202 162 168 188 172 183 193 172 180 186 186 185 195 196 175 177 194 198 202 202 207 206 210 207 152 149 159 163 164 161 162 166 170 175 176 176 176 178 179 180 183 185 187 190 190 188 183 177 170 165 163 159 157 156 156 153 149 149 144 143 142 138 136 136 143 147 145 149 149 148 144 165 295 310 309 311 312 312 321 332 342 349 351 351 348 350 359 3 1
154 132 125 151 163 217 200 196 215 151 152 204 185 174 177 177 185 185 181 184 196 191 179 191 197 200 204 201 205 204 208 183 140 151 159 158 158 156 158 161 163 166 170 174 174 175 178 180 181 179 181 186 188 184 179 175 172 167 160 156 152 148 152 150 141 141 141 139 138 137 137 139 144 147 146 149 148 151 166 273 293 301 305 311 314 323 339 343 346 348 349 359 6 11 23 22 18
106 138 155 173 174 202 212 197 200 166 170 234 187 169 185 185 183 185 176 176 197 196 190 198 198 199 203 201 205 200 188 149 145 156 155 153 152 152 157 160 163 164 167 173 175 174 177 178 178 178 180 184 185 183 180 180 182 181 172 162 154 147 148 147 141 139 139 138 137 136 135 135 137 137 136 135 126 107 11 321 309 312 317 323 324 332 342 343 350 352 356 42 55 50 48 42 38
60 127 146 169 197 191 224 219 114 163 191 232 187 169 193 194 179 185 180 182 199 201 198 201 194 198 202 202 203 191 172 156 163 163 151 151 149 152 159 161 168 171 170 173 174 173 174 175 177 180 181 182 183 184 185 184 183 183 177 165 157 150 146 146 143 139 139 136 132 129 128 127 127 121 111 89 58 40 16 348 339 333 332 339 333 333 347 356 15 33 54 84 81 70 63 54 50
71 89 133 177 207 169 200 224 48 61 137 153 144 135 189 195 173 179 186 189 191 187 198 201 196 207 208 202 200 190 182 168 170 167 151 150 149 155 164 165 170 171 170 172 172 173 173 175 180 182 181 181 183 184 184 184 178 173 166 158 156 152 147 146 144 138 137 136 131 126 120 113 107 91 73 53 38 34 23 7 4 351 350 3 345 347 18 37 54 65 76 95 95 83 74 62 57
178 129 158 185 186 175 181 169 105 56 49 114 114 83 285 195 194 202 176 191 205 178 188 202 208 214 205 197 201 198 192 181 174 168 155 149 150 160 168 171 172 172 173 175 174 175 174 177 182 184 182 181 184 184 183 182 176 167 157 150 148 145 144 145 144 137 132 133 129 119 109 98 88 72 56 45 38 33 32 31 26 16 19 23 22 46 69 73 77 81 87 98 95 90 85 74 65
223 198 203 197 170 151 107 121 108 76 4 233 122 101 276 203 203 213 183 197 213 191 193 208 208 204 202 202 204 202 193 185 180 168 159 149 148 159 171 175 174 174 179 179 178 178 177 180 184 185 183 183 185 185 184 182 176 170 163 156 151 146 143 145 148 144 137 132 125 116 105 91 75 60 50 45 41 36 36 42 45 51 62 73 84 89 90 86 83 85 89 96 96 94 91 82 73
230 220 202 203 184 113 107 127 112 132 199 229 129 146 231 223 214 215 194 200 213 203 203 210 204 202 209 209 202 199 193 183 178 169 162 154 150 160 175 178 176 178 182 181 180 179 178 181 185 186 183 184 186 185 184 182 177 174 171 166 161 157 151 147 151 150 142 133 124 117 106 90 70 54 52 45 37 31 33 58 74 84 92 97 101 96 91 87 84 87 89 93 97 93 87 84 80
223 210 179 189 198 189 151 128 115 172 162 111 64 125 149 235 222 202 190 202 218 217 212 213 211 210 211 211 203 196 190 184 179 174 168 161 158 167 178 179 180 183 183 182 181 181 180 182 185 185 184 185 187 184 183 184 180 176 173 170 166 164 159 151 149 146 140 137 129 119 107 91 68 52 48 27 15 28 72 98 100 102 106 105 101 93 89 89 89 91 92 91 91 86 82 85 83
216 192 173 179 185 175 134 109 114 129 109 152 260 165 147 252 242 173 181 206 220 221 218 219 218 213 211 210 203 196 189 184 181 176 172 166 164 173 179 179 182 185 183 182 182 181 182 183 184 184 184 186 185 182 181 182 181 178 177 172 165 162 159 152 149 146 143 141 133 123 111 95 69 50 34 3 360 115 116 115 113 110 108 103 98 95 94 95 93 92 91 89 87 84 82 82 80
189 165 151 134 167 152 107 103 119 111 120 204 221 193 182 260 258 164 180 207 217 220 221 222 220 213 210 208 202 194 187 184 182 174 171 168 166 173 178 178 182 184 182 182 182 181 182 183 184 184 186 187 183 181 181 180 181 181 180 177 168 160 156 152 151 148 146 144 136 127 118 104 84 55 30 22 137 137 127 122 117 111 107 104 102 100 99 97 94 91 89 87 85 84 81 79 79
136 137 117 76 57 71 66 57 94 119 224 226 207 195 196 244 246 190 187 200 205 209 218 220 217 211 207 205 199 192 186 183 180 173 170 166 164 171 176 178 181 180 180 181 181 182 184 183 183 182 185 187 183 181 181 181 183 184 184 181 174 167 162 159 156 152 151 151 142 133 127 121 117 115 130 137 143 141 134 126 119 113 110 109 107 103 100 96 94 93 91 88 85 84 83 81 82
134 137 133 108 42 28 35 4 55 160 237 245 198 173 181 236 240 209 204 207 203 205 212 210 207 207 204 200 194 189 186 181 176 173 172 164 162 171 175 176 178 175 176 177 178 183 185 183 182 179 180 183 183 182 182 183 185 186 186 183 179 175 172 171 167 162 161 159 151 145 144 144 140 140 142 141 142 141 137 128 122 120 116 113 109 104 102 99 98 96 92 90 86 84 84 83 84
157 140 135 137 165 121 140 244 205 202 244 270 171 140 156 247 236 212 209 214 209 207 212 209 205 203 199 193 188 185 183 179 175 173 174 170 167 171 172 174 177 173 172 175 177 182 184 182 181 177 176 179 180 180 183 185 186 186 186 184 180 178 178 179 177 171 167 162 159 157 154 151 144 144 145 141 141 140 135 130 127 125 119 115 111 108 106 103 101 98 93 91 87 85 84 84 85
180 169 155 162 160 159 194 210 226 225 243 299 145 144 184 269 255 209 202 212 216 211 211 208 203 201 192 184 181 179 180 180 175 173 175 174 174 175 172 174 177 172 171 174 175 179 182 180 180 176 174 177 178 179 182 184 185 187 186 183 180 179 180 182 179 173 166 163 163 159 153 151 148 149 146 141 141 140 136 132 131 128 124 120 115 111 110 107 103 100 95 91 87 85 85 85 86
181 161 139 161 164 171 194 194 187 204 209 351 67 157 187 208 239 217 203 220 220 198 195 180 174 181 171 169 175 176 180 181 176 175 176 174 174 176 173 174 176 172 170 171 172 177 180 178 178 175 171 173 177 179 181 183 184 184 184 183 182 183 183 180 175 170 166 164 161 155 150 151 151 151 148 143 143 142 136 133 133 131 128 123 118 115 114 111 107 102 97 92 88 87 87 88 87
189 132 126 184 185 155 149 174 175 143 113 67 178 213 218 203 259 268 228 247 188 165 168 157 158 161 157 170 180 178 181 181 179 177 175 174 173 173 172 172 175 172 169 169 171 177 178 175 176 176 173 173 176 178 180 182 183 183 185 186 184 183 180 174 168 166 165 163 159 153 150 152 154 152 148 145 144 140 136 136 136 134 132 127 122 118 116 114 109 103 98 93 90 89 89 90 87
171 167 183 196 147 115 111 193 357 95 137 226 204 239 290 290 280 305 47 156 176 175 174 166 166 164 165 178 181 179 182 179 180 179 174 173 171 170 170 170 173 173 170 170 174 178 176 173 172 172 171 172 175 177 179 181 182 182 183 184 182 180 177 173 169 166 164 160 156 153 150 152 154 153 150 148 145 142 140 141 140 138 136 131 125 121 118 115 110 104 98 94 92 92 92 91 87
150 190 191 126 91 91 103 159 15 69 167 255 233 217 250 173 242 320 43 151 184 188 181 173 172 169 174 182 179 178 180 176 177 177 175 173 170 169 169 170 174 174 172 173 176 177 174 172 172 171 170 171 173 177 178 180 181 178 177 177 177 176 175 173 171 168 164 159 156 155 153 154 156 155 152 151 149 147 145 145 144 142 140 134 127 124 121 118 112 105 98 94 93 93 96 94 86
172 179 162 123 168 213 110 145 167 121 165 264 290 253 246 193 214 279 221 193 191 185 179 174 178 182 183 182 177 176 175 172 173 173 176 175 171 170 166 166 172 172 170 173 175 174 171 169 171 173 173 172 174 176 176 177 177 174 172 173 174 174 174 173 171 169 165 161 159 158 158 158 158 156 156 155 154 152 150 149 147 145 141 135 129 127 125 121 112 105 98 94 93 95 99 95 86
126 137 150 158 185 198 188 156 157 153 162 215 267 286 267 231 216 213 214 207 186 174 180 188 192 192 188 179 174 174 173 174 174 173 176 173 169 169 165 163 167 168 167 169 172 171 168 165 166 169 169 168 170 173 172 171 172 172 171 171 172 173 173 172 171 169 166 163 162 161 161 161 159 158 159 159 158 157 155 153 150 147 144 137 133 131 128 122 112 104 97 92 94 99 100 94 87
135 150 171 189 177 161 200 191 124 138 149 165 188 255 263 246 211 202 215 210 185 179 187 196 199 193 187 179 172 171 171 173 173 171 171 168 164 163 163 163 164 165 164 166 170 169 166 164 164 166 166 164 166 168 169 170 170 173 173 172 172 172 172 171 169 168 167 164 163 162 162 162 160 160 161 162 161 160 159 157 153 150 146 141 138 136 132 124 114 105 96 92 94 100 100 93 88
146 164 179 189 169 122 176 209 221 105 141 165 158 208 266 255 210 208 216 204 190 192 192 195 197 190 184 178 172 170 169 170 170 167 165 165 160 158 159 160 161 162 163 165 167 167 165 164 163 165 166 165 165 166 168 170 170 173 174 172 171 171 171 171 168 168 168 166 165 164 164 163 161 161 164 166 165 162 161 160 157 153 149 145 142 140 137 128 117 108 100 95 94 98 99 93 88
Height
769 769 768 768 766 764 767 768 785 795 797 811 810 808 804 794 793 793 793 790 788 786 783 784 782 783 788 793 794 798 804 804 805 812 809 798 796 797 797 797 798 799 801 803 805 806 808 809 810 811 812 813 814 814 815 816 817 818 819 820 821 822 823 823 824 824 824 825 825 825 826 827 828 829 829 830 830 831 831 832 832 833 833 833 834 834 834 834 834 835 835 836 837 837 838 838 838
771 769 767 768 765 766 772 773 794 807 807 817 812 806 803 794 795 796 795 793 792 786 782 782 782 785 787 789 792 797 803 803 801 801 799 797 798 798 799 799 799 799 801 804 805 806 807 808 810 810 812 813 814 815 816 817 818 819 819 820 821 822 823 824 824 825 825 825 826 826 827 828 829 829 830 830 831 831 832 833 833 833 834 834 834 835 835 835 835 836 836 837 837 838 838 838 839
772 770 768 767 765 767 775 779 797 812 814 822 814 802 799 798 798 795 790 789 788 783 781 781 782 786 787 791 795 799 802 802 800 798 798 798 798 798 799 799 800 800 801 804 805 806 807 808 809 810 811 813 814 815 817 818 818 819 820 821 821 822 823 824 825 825 826 826 827 827 828 828 829 830 831 831 832 832 833 833 834 834 834 835 835 835 836 836 836 837 837 838 839 839 839 839 840
773 771 770 767 770 774 782 793 804 812 815 821 817 801 796 798 796 791 786 785 784 782 783 783 788 788 788 796 797 799 803 801 798 797 798 798 798 798 798 800 800 801 803 804 805 806 807 808 809 810 812 813 815 816 817 818 818 819 820 821 821 822 823 824 825 826 827 827 828 828 829 829 830 831 832 832 833 833 834 834 835 835 835 835 836 836 836 837 838 838 838 839 840 840 840 840 840
774 773 771 768 777 784 791 804 808 811 810 811 811 799 794 795 793 790 784 784 784 784 785 786 792 790 788 795 797 800 803 801 798 797 797 797 798 798 799 800 801 802 804 805 806 807 808 808 809 810 812 813 815 816 817 818 818 819 820 821 822 822 823 825 826 827 828 828 829 829 829 830 830 831 832 833 833 834 834 835 835 836 836 836 836 837 837 838 839 839 840 840 841 841 841 841 841
774 773 772 769 779 786 795 808 808 808 801 798 802 794 790 792 791 788 783 782 783 784 784 786 792 793 795 797 795 799 801 799 797 796 797 797 798 799 801 802 803 804 805 806 807 808 809 809 809 810 812 813 815 817 817 818 819 819 820 821 822 823 824 825 826 828 828 829 829 830 830 830 830 831 832 833 833 834 835 835 836 836 837 837 837 838 838 839 840 840 841 841 842 842 842 842 842
774 775 776 778 785 788 801 811 807 805 796 792 795 788 785 788 787 785 784 784 784 784 784 787 788 793 801 799 797 798 796 796 795 795 797 797 799 801 803 804 804 805 807 807 809 810 810 810 810 811 812 813 815 817 818 818 819 820 821 822 822 823 824 825 826 827 828 829 829 829 830 830 831 831 832 833 834 834 835 835 836 837 837 837 838 838 839 840 841 841 842 842 843 843 843 843 844
774 778 782 787 795 799 807 812 808 806 797 790 790 785 783 785 786 785 787 787 787 786 785 787 786 793 803 799 801 799 795 796 794 795 797 798 801 802 804 805 805 806 808 809 810 812 812 812 812 812 813 814 816 817 818 819 820 821 821 822 823 824 824 825 826 827 828 828 829 829 830 830 830 831 832 832 833 834 834 835 836 837 837 838 839 839 839 840 841 842 842 843 844 844 844 845 845
774 779 785 791 802 807 810 813 810 806 798 790 787 783 781 783 784 784 787 787 786 784 787 788 786 795 803 802 804 801 797 797 795 797 798 799 801 803 804 805 806 806 808 810 811 812 813 814 813 814 814 815 817 818 819 819 820 821 822 823 823 824 825 826 826 827 828 829 829 830 830 830 830 831 831 832 833 833 834 835 836 837 837 838 839 840 840 841 841 842 843 844 845 845 845 845 846
777 781 788 796 804 812 816 815 810 805 797 791 787 782 782 783 781 782 786 788 785 785 789 787 789 797 802 806 807 802 800 798 796 798 799 800 802 803 805 806 807 807 809 810 811 812 813 815 815 814 814 815 817 818 818 819 820 821 823 823 824 825 826 827 827 828 829 830 830 830 830 830 830 830 831 832 832 833 833 834 835 836 837 838 839 840 840 841 842 843 844 844 845 845 846 846 846
783 786 789 801 809 815 817 813 808 802 795 792 788 779 778 781 781 784 788 789 786 789 791 789 795 800 803 807 806 801 800 799 798 798 799 801 802 804 805 807 809 809 810 811 811 812 813 814 815 815 814 815 816 817 818 819 820 822 823 824 824 826 827 828 829 829 830 831 831 831 831 831 831 830 831 832 832 832 833 834 835 836 837 839 840 840 841 841 842 843 844 844 845 846 846 846 846
787 793 792 803 810 810 811 809 805 800 796 794 788 777 774 777 780 786 789 790 790 793 792 789 795 797 804 809 804 801 800 800 800 799 800 801 803 805 806 808 809 810 811 812 812 813 814 815 815 816 816 816 817 818 818 819 821 822 823 824 825 826 828 829 829 830 831 831 831 832 832 831 831 831 831 832 832 832 833 834 835 836 837 839 840 840 841 842 842 843 844 844 845 846 846 846 846
786 793 794 803 808 805 808 810 805 802 799 793 786 777 773 776 779 783 785 787 790 795 791 787 789 793 805 808 802 801 800 800 800 799 800 801 803 805 807 808 809 810 812 813 814 814 816 816 816 817 817 818 818 819 819 820 821 822 824 825 826 827 828 829 830 831 831 832 832 832 832 832 832 832 832 832 833 833 833 834 835 837 838 839 840 841 841 842 842 843 844 844 845 846 846 846 847
782 789 791 802 809 805 804 807 805 805 801 790 783 777 775 778 780 780 780 785 791 792 788 784 785 793 804 808 804 801 799 799 800 800 801 802 804 805 807 808 809 810 811 813 814 816 817 817 818 818 818 818 819 819 820 821 822 823 824 825 826 827 828 829 830 831 832 833 833 833 833 833 832 832 833 833 833 834 834 835 836 837 838 839 840 841 841 842 843 843 844 844 845 845 846 846 846
781 786 789 799 808 806 803 803 801 802 798 788 782 776 777 780 778 779 780 786 791 787 784 784 784 790 797 801 800 795 795 798 799 800 801 803 804 806 807 808 809 810 811 813 814 815 816 817 818 818 819 819 819 820 821 822 823 824 825 826 826 827 828 829 830 831 833 834 834 834 834 833 833 834 834 834 835 835 835 836 837 838 839 840 841 841 842 842 843 843 844 844 845 845 846 846 846
779 784 791 798 804 806 803 801 800 802 796 786 780 776 780 783 779 782 782 781 788 785 784 787 784 786 788 788 787 786 792 797 799 801 801 803 805 806 807 808 809 810 811 812 813 814 815 816 817 819 819 820 820 820 821 822 823 824 825 826 827 827 828 829 830 832 833 834 835 835 835 835 835 835 835 836 836 836 836 837 838 839 840 840 841 842 843 843 844 844 844 844 845 845 845 845 846
779 784 793 799 803 803 800 799 799 797 790 783 779 777 782 786 783 783 781 780 787 788 787 788 784 782 783 783 781 784 791 796 798 801 801 803 804 805 806 807 808 809 810 812 813 814 814 816 817 818 819 820 821 821 822 823 824 825 826 826 827 828 829 830 831 832 833 834 835 835 836 836 836 836 836 837 837 838 838 838 839 839 840 841 842 843 843 844 844 845 845 845 845 845 845 845 845
780 788 795 799 800 796 790 789 789 786 784 781 777 776 781 786 786 783 783 788 790 791 790 788 785 783 782 783 784 787 792 795 798 799 800 802 802 803 803 803 804 806 808 810 812 813 814 815 816 818 819 820 821 822 822 823 824 825 826 827 827 829 829 831 831 832 834 835 836 836 836 836 837 837 837 838 838 839 839 840 840 840 841 842 842 843 844 844 845 845 845 845 845 845 845 845 845
781 789 793 793 792 786 779 778 780 781 780 778 775 775 779 782 784 782 788 797 794 793 796 793 791 789 786 786 788 790 793 795 797 797 797 799 799 799 800 801 804 806 807 809 811 813 815 815 816 818 819 821 821 822 823 823 824 825 826 827 828 829 830 831 832 833 834 835 836 837 837 837 837 838 838 839 839 840 840 841 841 842 842 843 843 843 844 844 845 846 846 846 846 846 846 845 845
780 785 789 787 783 779 775 774 775 774 774 775 775 775 778 780 780 781 789 799 797 795 795 794 795 793 789 789 789 791 794 795 795 795 796 797 797 797 799 801 804 806 808 810 811 814 815 816 817 819 820 821 822 823 823 824 825 825 826 827 828 829 830 832 833 833 834 835 836 837 838 838 838 838 839 839 840 840 841 842 842 842 843 843 844 844 844 844 845 845 846 846 846 846 846 846 846
779 780 783 781 778 778 774 773 771 770 772 774 775 776 778 778 778 782 789 798 801 796 789 786 788 789 788 789 790 791 793 793 794 794 795 795 796 798 800 802 805 807 808 810 812 814 816 817 818 819 820 821 823 824 824 825 826 826 827 827 828 829 831 832 833 834 835 835 836 837 838 839 839 839 839 840 840 841 841 842 843 843 843 844 844 844 844 844 845 845 846 846 846 846 846 846 846
778 777 776 774 776 777 772 770 770 770 773 774 776 777 777 777 779 783 784 789 792 786 781 778 778 780 782 784 788 791 791 792 792 793 794 794 795 798 801 804 806 807 808 810 812 814 815 817 818 819 821 822 823 824 825 826 826 827 828 828 828 829 831 832 834 835 835 836 837 838 839 839 839 840 840 840 841 841 842 842 843 843 843 844 844 844 844 844 845 845 846 846 846 846 846 846 846
776 776 773 772 773 774 770 768 769 770 773 775 776 776 775 778 782 784 781 780 779 775 774 775 775 776 778 781 785 788 789 790 790 791 793 794 795 798 800 803 805 807 809 810 811 813 815 817 818 819 821 822 823 825 826 826 827 828 828 829 830 830 831 833 834 835 836 836 837 838 839 840 840 840 840 841 841 842 842 843 843 843 843 844 844 844 844 844 844 845 846 846 846 846 846 846 846
775 776 773 771 771 771 768 767 768 769 772 773 773 774 777 780 782 784 783 780 776 772 772 774 776 778 780 784 784 784 785 786 788 791 793 795 796 798 800 802 805 808 809 810 812 813 815 816 818 819 821 822 824 825 826 827 827 828 829 830 830 831 832 833 834 835 836 836 837 838 839 840 840 840 841 841 842 842 843 843 844 844 844 844 844 844 844 844 844 845 845 846 845 845 845 845 845
774 775 772 770 771 769 767 767 768 769 771 772 774 776 779 780 780 783 784 781 777 772 773 776 778 781 783 784 785 784 785 786 789 793 795 797 798 800 801 803 805 808 810 811 812 813 814 815 817 819 821 822 824 826 827 828 828 828 829 830 831 832 833 834 835 835 836 837 838 838 839 840 840 841 841 841 842 842 843 844 844 844 844 844 844 844 844 843 844 844 845 845 845 845 845 845 845
771 771 771 769 770 769 767 767 768 770 771 771 775 780 781 780 780 784 784 781 778 775 776 779 780 782 783 784 785 785 785 788 791 793 795 797 799 801 803 804 806 808 810 811 812 813 814 815 817 819 821 823 825 827 828 829 829 830 830 831 832 833 834 835 835 836 836 837 838 839 840 840 841 841 841 841 842 843 844 844 845 845 845 845 845 844 844 843 843 844 845 845 845 845 845 845 845
768 769 769 770 769 768 768 768 768 771 772 771 775 781 782 779 780 784 784 781 779 779 780 782 783 784 784 784 785 785 787 789 791 793 795 797 799 801 803 805 807 809 810 811 812 813 814 815 817 819 821 823 825 827 828 829 830 831 831 832 833 834 835 836 836 836 837 837 838 839 840 841 841 841 841 842 842 843 844 845 845 846 846 846 846 845 844 843 843 844 844 845 845 845 845 845 845
766 767 770 771 770 769 768 768 769 770 771 769 772 780 783 782 781 781 781 781 780 781 783 783 784 785 784 785 786 786 788 790 791 793 794 797 799 801 803 805 807 809 810 811 812 813 814 816 817 819 822 824 826 827 829 830 831 831 832 833 834 835 836 836 836 837 837 838 838 839 840 841 841 841 842 842 843 843 844 844 846 846 847 847 846 846 845 844 843 844 844 845 845 845 845 845 845
766 767 772 773 772 771 767 766 768 769 770 767 771 783 788 784 781 779 779 780 781 783 785 785 785 785 786 787 787 788 789 791 792 793 794 797 799 801 802 804 806 808 810 811 813 813 814 816 818 820 822 824 826 828 829 831 831 832 833 833 834 835 836 836 837 837 837 838 838 839 840 841 841 841 842 843 843 844 844 845 846 847 848 847 847 846 845 844 844 844 844 845 845 845 845 845 845
767 768 772 774 777 774 764 764 767 768 770 765 770 786 789 784 780 777 778 779 782 786 787 787 786 786 787 788 789 789 790 791 792 794 796 798 800 801 803 804 806 808 809 811 812 813 814 816 819 821 823 825 826 828 830 831 832 833 833 834 835 835 836 836 837 837 838 838 839 840 840 841 841 841 841 842 843 844 845 845 846 847 848 848 848 847 846 845 844 844 844 845 845 845 845 845 846
769 771 772 774 780 773 760 761 765 768 769 762 770 785 784 784 783 777 778 778 781 786 786 786 787 787 788 788 789 790 790 792 793 795 797 798 800 802 803 804 806 807 809 810 812 813 814 817 819 821 823 825 827 829 830 831 832 833 834 835 835 835 836 837 837 838 838 839 840 840 841 841 840 840 841 842 843 845 845 846 846 847 848 849 848 847 846 845 845 844 844 845 845 845 845 846 846
769 775 778 776 777 770 758 758 761 764 768 763 770 784 784 783 783 777 776 779 780 784 786 786 787 787 788 788 789 790 791 792 794 796 797 799 801 802 803 804 806 807 808 810 811 813 815 817 820 822 823 825 827 828 830 831 832 833 834 835 835 836 836 837 838 838 839 839 840 841 841 841 840 840 841 842 843 845 845 846 847 848 849 849 848 847 846 846 845 844 844 844 844 844 844 845 845
772 774 777 774 774 773 764 758 757 758 765 766 768 779 785 782 780 777 776 778 781 784 785 785 786 787 787 788 789 789 791 792 794 796 797 799 801 802 803 804 806 807 808 809 811 813 815 817 819 821 823 825 827 828 830 831 832 833 834 835 836 837 837 838 838 838 839 839 840 841 841 841 841 841 841 842 843 844 846 846 847 848 849 849 849 848 847 846 845 844 844 843 843 843 843 843 844
774 771 772 769 769 773 769 760 758 758 762 767 769 773 778 778 776 777 777 777 780 783 784 784 785 786 787 787 789 790 790 791 793 795 797 799 800 801 802 804 805 806 808 810 812 814 815 817 819 821 823 825 826 828 829 831 832 833 835 836 836 837 838 838 838 839 839 840 840 841 841 841 841 841 842 842 844 845 846 847 848 849 849 849 849 848 847 846 845 844 843 843 843 842 842 842 842
764 769 770 768 767 770 768 760 758 760 761 766 772 773 775 777 776 777 777 777 779 781 781 783 785 786 787 788 788 789 789 791 792 794 796 798 799 800 802 803 805 806 808 810 812 814 816 817 819 821 822 824 826 828 829 831 832 833 835 836 837 837 838 838 839 839 839 840 841 841 842 842 842 842 843 843 844 845 846 847 848 849 849 849 848 848 847 846 845 844 843 842 842 842 841 841 841
756 764 767 768 768 769 765 758 754 758 762 768 771 771 775 779 778 778 778 777 779 781 782 784 786 786 787 788 788 788 789 790 791 793 795 797 798 799 801 802 804 806 808 810 812 814 815 817 819 821 822 824 826 827 829 830 832 833 834 835 836 837 838 838 839 839 840 840 841 842 842 843 843 843 844 844 845 846 847 848 848 849 849 849 848 848 847 846 845 843 842 842 842 842 841 841 841
754 760 765 764 765 766 762 756 752 754 761 769 769 769 774 778 777 776 776 778 780 781 783 783 784 785 786 787 787 788 788 789 791 793 794 796 797 798 800 802 803 806 808 810 812 813 815 817 818 820 821 823 825 826 828 829 831 832 833 834 835 837 837 838 839 840 840 841 842 843 843 843 844 845 845 846 846 847 847 848 848 849 849 849 848 847 846 845 844 843 842 842 841 841 841 840 840
754 757 762 763 763 762 758 754 753 752 756 768 771 770 774 775 774 775 775 778 780 778 780 781 782 784 784 786 787 787 788 789 790 792 793 795 796 798 799 801 803 805 807 809 811 813 815 816 817 819 821 823 824 826 827 828 829 830 831 832 834 836 838 838 839 840 841 842 843 843 844 844 845 846 846 847 847 847 848 848 848 848 849 848 848 847 846 845 844 843 842 841 841 841 840 840 839
759 759 760 764 763 758 757 753 753 754 755 767 775 774 776 776 773 775 775 776 776 775 776 778 780 783 784 784 785 786 787 788 790 791 792 793 795 797 799 800 802 804 806 809 811 812 814 815 817 818 820 822 824 825 827 827 829 829 830 832 833 835 838 839 840 841 842 843 844 844 845 845 846 846 847 847 848 848 848 848 848 848 848 848 848 847 846 844 843 842 841 841 841 841 841 840 839
764 764 762 763 762 760 759 758 759 761 760 767 776 779 781 779 776 777 776 776 776 776 777 778 779 780 782 783 784 785 787 788 789 790 790 792 794 796 798 800 802 804 806 808 810 812 813 815 816 818 820 822 824 825 826 828 829 830 831 832 833 835 838 840 841 842 843 843 844 845 845 846 847 847 848 848 848 848 848 848 848 848 848 848 847 846 845 844 842 841 840 840 840 841 841 841 840
766 766 764 761 760 757 756 759 762 766 769 769 774 785 789 783 780 779 776 777 778 777 778 778 778 779 780 782 783 784 785 787 788 789 789 790 792 795 797 799 801 803 805 807 809 811 812 814 816 818 820 821 823 825 826 827 828 830 832 833 834 836 839 840 841 842 843 843 844 845 846 847 847 847 848 848 848 849 849 849 849 848 848 847 847 845 844 843 841 841 840 841 841 841 841 841 841
768 765 761 758 758 755 756 761 760 766 777 771 770 786 793 784 781 780 776 777 778 777 778 778 778 779 780 781 782 782 783 785 787 788 789 789 791 794 797 799 800 802 804 806 808 810 812 814 816 817 819 821 823 824 826 827 828 829 831 832 834 835 838 840 841 842 843 844 845 845 846 847 847 847 848 848 849 849 849 849 849 848 848 847 846 845 844 843 842 842 842 842 842 842 841 841 842
771 762 756 755 756 756 758 761 759 766 775 770 766 776 787 788 782 777 776 777 777 776 777 777 777 778 778 779 780 781 782 784 785 787 788 788 790 793 796 798 800 801 804 806 808 810 812 813 815 817 819 820 822 823 825 826 828 830 831 832 833 835 837 839 841 842 843 844 845 846 847 847 848 848 848 849 849 849 849 849 849 848 847 847 846 845 844 844 844 844 844 843 843 843 841 840 842
767 754 751 756 756 757 760 760 763 769 772 773 771 769 780 788 780 771 773 777 777 776 777 776 775 775 775 776 777 778 780 781 784 785 786 787 788 792 795 797 799 801 804 806 808 810 811 813 815 817 818 820 821 823 825 826 827 830 831 833 834 835 837 839 841 842 843 844 845 846 847 847 848 848 849 849 849 850 850 849 849 848 848 847 847 846 846 846 846 845 845 844 844 843 843 842 844
756 748 749 753 754 756 758 761 766 770 773 780 779 771 775 782 775 769 773 778 777 775 774 772 770 770 772 773 774 775 777 779 781 783 784 785 787 791 794 796 799 801 803 805 807 809 811 813 815 816 818 819 821 822 824 826 828 829 831 832 834 836 837 839 841 842 843 844 845 847 847 848 848 849 849 850 850 850 850 850 849 849 848 848 848 848 848 848 847 847 846 845 844 844 845 844 845
747 747 750 752 754 755 757 763 766 770 776 778 775 771 771 777 777 773 774 777 775 770 767 764 764 767 768 770 772 773 775 777 779 781 783 784 786 790 793 796 798 800 803 805 807 809 810 812 814 816 817 818 820 822 823 826 828 829 831 832 833 836 837 839 841 842 844 845 846 847 848 848 849 849 850 850 850 850 850 850 850 850 849 849 849 849 849 849 848 848 847 847 846 846 847 847 847
746 750 751 755 760 758 761 765 765 775 781 770 765 768 768 771 776 773 768 764 762 761 762 761 761 764 765 766 769 771 773 775 777 780 782 784 786 790 793 795 797 799 802 804 806 808 810 812 814 815 816 818 820 822 823 825 827 829 830 832 833 835 837 839 840 842 844 845 846 847 848 848 849 849 850 850 851 851 851 851 851 851 851 851 851 851 851 850 849 849 848 848 848 848 849 849 850
744 747 749 759 766 763 768 770 770 781 780 763 760 768 772 772 769 765 758 749 748 753 756 757 757 758 760 762 765 768 770 773 776 778 781 783 785 789 792 794 796 798 800 803 805 807 809 811 813 814 816 817 819 821 823 825 827 829 830 832 833 834 836 838 840 842 843 844 845 846 847 848 849 849 850 850 851 851 851 851 851 852 852 852 852 852 852 851 851 850 850 850 850 851 851 852 852
744 746 750 764 773 774 777 778 778 780 772 766 766 767 772 771 756 752 753 747 744 744 744 745 748 750 754 758 761 765 768 771 774 776 779 781 783 787 790 792 795 796 798 802 804 806 808 810 812 813 815 817 819 821 823 825 827 829 830 832 833 835 837 838 840 841 843 844 845 846 847 848 849 850 850 851 851 851 852 852 852 853 853 853 853 853 853 853 852 852 852 852 853 853 854 853 854
743 746 750 761 772 780 784 781 781 777 768 770 771 764 768 766 746 739 742 740 736 735 736 739 742 746 750 754 758 762 766 769 771 774 776 778 781 784 787 790 793 795 797 800 802 805 807 809 811 812 814 816 818 821 823 825 827 829 831 832 834 835 837 838 840 841 843 844 845 846 847 848 849 850 851 851 851 852 852 853 853 854 854 854 855 855 854 854 854 854 854 854 854 855 856 855 856
740 741 745 753 759 766 773 773 773 773 771 773 772 765 763 757 740 731 730 730 730 732 736 738 741 745 749 753 757 760 764 767 768 771 774 775 778 782 785 788 791 794 796 799 801 803 806 808 810 811 813 816 818 820 823 825 827 829 831 832 834 835 836 838 840 842 843 845 846 847 848 849 850 851 851 852 852 853 853 854 854 855 855 856 856 856 856 856 856 855 856 856 856 857 858 858 859
742 739 744 749 747 748 761 768 765 765 768 773 772 762 753 744 733 730 731 730 730 732 735 739 741 744 748 752 755 758 761 764 766 769 772 774 777 780 783 786 790 793 795 797 799 802 805 806 808 810 812 815 817 820 822 824 826 828 830 832 833 835 837 838 840 842 844 845 846 847 848 849 850 851 852 852 853 854 854 855 856 856 857 857 857 857 857 857 857 857 857 858 858 859 860 860 861
742 742 742 741 737 738 753 767 769 765 761 768 770 757 748 744 732 728 732 729 730 733 734 738 741 742 746 749 751 755 757 760 763 766 769 773 775 778 781 784 788 791 793 796 799 802 804 805 807 810 812 815 817 819 821 824 826 828 830 831 833 835 837 839 840 842 844 846 847 848 849 850 851 852 852 853 854 855 856 857 857 858 858 858 859 858 859 859 859 859 859 859 860 861 861 862 862
738 743 736 734 738 741 746 758 768 770 764 765 769 758 750 751 739 731 733 731 732 736 735 737 740 741 743 745 746 750 753 756 760 764 768 771 774 776 779 782 786 789 792 795 799 801 803 804 806 809 811 814 817 819 821 823 825 827 829 831 833 835 837 839 841 843 844 846 847 849 849 850 851 852 853 854 855 856 857 858 858 859 859 860 860 860 860 861 860 860 861 861 862 862 863 863 864
726 730 726 733 746 750 751 756 762 768 769 766 766 762 754 749 738 727 727 729 731 735 737 739 740 739 739 741 744 747 751 755 758 762 765 768 771 774 777 780 785 788 791 794 798 801 802 804 805 808 811 813 816 819 821 823 825 827 829 831 833 835 837 839 841 843 844 846 847 849 850 851 852 853 854 855 856 857 858 859 860 860 860 861 861 862 862 862 862 862 862 863 863 864 864 864 865
723 724 726 733 738 741 746 753 754 757 765 765 762 764 756 742 728 716 714 721 727 731 736 735 733 733 733 736 740 743 747 751 755 758 761 763 767 772 775 779 783 787 789 793 797 799 801 803 805 807 810 813 816 818 820 823 825 827 829 831 833 835 837 839 841 842 844 846 848 849 850 851 852 854 855 856 857 858 859 860 861 861 861 862 863 863 864 864 863 863 863 864 864 865 865 866 867
728 730 733 733 733 735 739 748 751 746 755 763 761 762 748 726 718 711 707 716 722 723 726 726 726 727 730 732 736 739 744 747 751 756 759 761 764 769 774 778 783 787 789 792 796 798 800 802 804 806 810 812 815 818 820 822 825 827 829 831 833 835 837 839 841 843 845 846 848 849 850 851 853 854 856 857 858 859 860 860 861 861 862 863 864 864 865 865 864 864 864 865 865 866 866 867 868
725 728 732 731 732 739 745 752 753 744 747 756 757 756 734 710 709 709 704 712 717 715 715 717 720 723 727 730 732 735 740 744 749 753 756 760 763 767 773 777 782 786 789 792 794 797 799 801 803 806 809 812 814 817 819 822 824 826 828 830 833 835 837 839 841 842 845 846 847 849 850 852 853 855 856 858 858 859 860 861 862 862 863 864 865 865 866 865 865 865 865 866 867 867 867 868 869